Simultaneous Nadir Overpasses (SNOs) Predictions

Prediction of SNOs between AURA and NPP Satellite Orbit:

Table of predicted SNOs for the next 14.0 days since TLE Epoch: 1/26/2018
Index Date (AURA) Time (AURA) Lat,Lon (AURA) SZA (AURA ) Date (NPP) Time (NPP) Lat,Lon (NPP) SZA (NPP ) Distance(km) Time Diff (sec)
1 01/27/2018 19:58:25 -79.71, -41.04 69.39 01/27/2018 19:58:19 -79.71, -41.15 69.36 2.37 6
2 01/27/2018 20:47:44 79.96, 128.57 110.23 01/27/2018 20:48:55 79.97, 128.66 110.16 1.92 71
3 01/30/2018 11:25:30 79.58, -93.74 110.13 01/30/2018 11:24:30 79.58, -93.78 110.18 0.88 60
4 01/30/2018 12:14:51 -79.81, 75.59 70.22 01/30/2018 12:15:08 -79.81, 75.58 70.23 0.18 17
5 02/02/2018 03:41:56 79.71, 23.09 109.21 02/02/2018 03:41:19 79.72, 23.19 109.22 1.99 37
6 02/02/2018 04:31:18 -79.90,-167.80 71.09 02/02/2018 04:31:58 -79.91,-167.69 71.14 2.52 40
7 02/04/2018 19:58:25 79.73, 139.09 108.42 02/04/2018 19:58:12 79.72, 139.03 108.44 1.21 13
8 02/04/2018 20:47:47 -79.92, -51.78 71.88 02/04/2018 20:48:51 -79.92, -51.83 71.92 0.96 64
9 02/07/2018 11:25:34 -79.53, 85.89 72.08 02/07/2018 11:24:27 -79.52, 85.75 72.00 2.97 67




NCC Satellite Simultaneous Nadir Overpasses (SNOs) Prediction Service
